Content
SEND FEEDBACK

Daily
Averages
Monthly
Summary
United States of America

MAURICEVILLE, TEXAS


Home > North America > United States > Texas
Elevation: 20 feet     Latitude: 30 14N     Longitude: 093 44W

WEATHER
 
SELECT A DAY
Number of Records: 113,897;   Date Range: 8/25/05 - 9/30/14
 
SHARE

PRINT THIS DATA

[ ← Previous Day ]
WEATHER ALMANAC - OCTOBER 18, 2013
[ Next Day → ]
[ °C ]   °F
Weather ElementAverageHighLow
Temperature63.4 °F71.8 °F (2:35 pm)55 °F (4:15 am)
Dewpoint57.3 °F61.5 °F (10:55 pm)54.3 °F (2:55 pm)
Humidity82 %99 % (3:15 am)55 % (2:15 pm)
Barometer29.99 in30.06 in (8:55 am)29.92 in (4:15 pm)
Wind Speed4.6 mph12.7 mph (11:55 am)
Wind Gust17.3 mph (10:35 am)
Weather ElementAverage
Visibility8.8 mi
Wind DirectionENE (72 °)

Weather ElementTotal
Precipitation---
Heating Degree Days1.6 (Base 65)
Growing Degree Days13.4 (Base 50)
Averaged from 71 records on October 18, 2013
WEATHER CONDITIONS BREAKOUT
WIND DIRECTION BREAKOUT
WEATHER BY HOUR - OCTOBER 18, 2013
[ °C ]   °F
Local TimeTemperatureDewpointHumidityBarometerVisibilityWind DirectionWind SpeedGust SpeedPrecipitationEventsConditions
12:35 AM56.7 °F55.4 °F96 %30.02 in10.0 miCalmClear
12:55 AM56.7 °F55.6 °F96 %30.02 in10.0 miCalmClear
1:15 AM56.3 °F55.2 °F96 %30.01 in10.0 miCalmClear
1:35 AM56.3 °F55.4 °F97 %30.01 in10.0 miCalmClear
1:55 AM56.1 °F55.4 °F97 %30.01 in10.0 miCalmClear
2:15 AM55.8 °F55.0 °F97 %30.02 in10.0 miCalmClear
2:35 AM55.6 °F54.9 °F97 %30.02 in5.0 miCalmClear
2:55 AM56.1 °F55.6 °F98 %30.02 in5.0 miCalmClear
3:15 AM55.6 °F55.2 °F99 %30.02 in0.5 miCalmFogFog
3:35 AM55.4 °F54.7 °F97 %30.01 in1.0 miCalmMist
3:55 AM55.6 °F55.0 °F98 %30.01 in3.0 miCalmClear
4:15 AM55.0 °F54.5 °F98 %30.02 in3.0 miCalmClear
4:35 AM55.6 °F55.0 °F98 %30.01 in5.0 miCalmClear
4:55 AM56.1 °F55.4 °F97 %30.01 in4.0 miCalmClear
5:15 AM56.3 °F55.6 °F97 %30.02 in4.0 miCalmClear
5:35 AM55.8 °F55.2 °F98 %30.02 in4.0 miCalmClear
5:55 AM56.1 °F55.6 °F98 %30.02 in4.0 miCalmClear
6:15 AM56.8 °F56.3 °F98 %30.02 in5.0 miCalmClear
6:35 AM57.7 °F57.2 °F98 %30.02 in7.0 miNorth (360°)3.5 mphClear
6:55 AM57.7 °F57.2 °F98 %30.02 in7.0 miNorth (10°)4.6 mphClear
7:15 AM58.3 °F57.7 °F98 %30.03 in10.0 miCalmClear
7:35 AM58.3 °F57.7 °F98 %30.04 in10.0 miCalmClear
7:55 AM59.0 °F58.5 °F98 %30.05 in10.0 miENE (70°)3.5 mphClear
8:15 AM59.9 °F59.2 °F97 %30.05 in10.0 miNE (40°)5.8 mphScattered Clouds
8:35 AM60.1 °F59.2 °F97 %30.05 in10.0 miNE (50°)5.8 mphScattered Clouds
8:55 AM60.8 °F59.4 °F95 %30.06 in10.0 miNE (50°)5.8 mphScattered Clouds
9:15 AM61.9 °F59.9 °F93 %30.05 in10.0 miNE (50°)8.1 mphMostly Cloudy
9:35 AM63.0 °F59.9 °F90 %30.05 in10.0 miENE (70°)9.2 mphScattered Clouds
9:55 AM63.1 °F59.5 °F88 %30.05 in10.0 miNE (50°)6.9 mphScattered Clouds
10:15 AM63.5 °F58.6 °F84 %30.05 in10.0 miENE (60°)9.2 mphScattered Clouds
10:35 AM66.2 °F59.0 °F78 %30.05 in10.0 miENE (60°)10.4 mph17.3 mphScattered Clouds
10:55 AM66.4 °F57.9 °F74 %30.05 in10.0 miENE (60°)9.2 mphMostly Cloudy
11:15 AM67.1 °F57.9 °F72 %30.03 in10.0 miNE (50°)11.5 mphOvercast
11:35 AM68.0 °F56.5 °F67 %30.04 in10.0 miENE (70°)11.5 mphOvercast
11:55 AM68.9 °F55.9 °F63 %30.03 in10.0 miENE (70°)12.7 mphOvercast
12:15 PM68.9 °F54.9 °F61 %30.03 in10.0 miENE (70°)11.5 mphOvercast
12:35 PM69.1 °F55.4 °F62 %30.03 in10.0 miEast (100°)10.4 mphMostly Cloudy
12:55 PM69.3 °F55.6 °F62 %30.01 in10.0 miEast (80°)11.5 mphMostly Cloudy
1:15 PM69.8 °F55.9 °F61 %30.00 in10.0 miENE (70°)10.4 mphScattered Clouds
1:35 PM69.4 °F55.0 °F60 %29.98 in10.0 miENE (70°)9.2 mphScattered Clouds
1:55 PM70.9 °F54.9 °F57 %29.98 in10.0 miENE (70°)9.2 mphMostly Cloudy
2:15 PM71.4 °F54.7 °F55 %29.96 in10.0 miNE (50°)10.4 mphMostly Cloudy
2:35 PM71.8 °F54.7 °F55 %29.96 in10.0 miNE (40°)9.2 mphMostly Cloudy
2:55 PM71.2 °F54.3 °F55 %29.95 in10.0 miNE (40°)9.2 mphMostly Cloudy
3:15 PM70.7 °F55.0 °F58 %29.96 in10.0 miEast (100°)3.5 mphOvercast
3:35 PM69.4 °F55.4 °F61 %29.96 in10.0 miENE (60°)3.5 mphRainLight Rain
3:55 PM68.2 °F57.9 °F70 %29.95 in10.0 miCalmRainLight Rain
4:15 PM68.9 °F58.5 °F69 %29.92 in10.0 miEast (80°)8.1 mphScattered Clouds
4:35 PM69.4 °F56.5 °F63 %29.93 in10.0 miENE (60°)4.6 mphMostly Cloudy
4:55 PM70.0 °F56.7 °F63 %29.93 in10.0 miNE (50°)6.9 mphOvercast
5:15 PM71.1 °F56.3 °F60 %29.94 in10.0 miENE (70°)4.6 mphOvercast
5:35 PM70.5 °F55.9 °F60 %29.95 in10.0 miENE (70°)4.6 mphOvercast
5:55 PM70.2 °F56.7 °F62 %29.93 in10.0 miNNE (30°)8.1 mphMostly Cloudy
6:15 PM68.7 °F56.7 °F65 %29.92 in10.0 miNE (50°)6.9 mphScattered Clouds
6:35 PM68.7 °F56.5 °F65 %29.93 in10.0 miENE (60°)5.8 mphClear
6:55 PM67.6 °F57.4 °F70 %29.93 in10.0 miNNE (20°)3.5 mphMostly Cloudy
7:15 PM66.7 °F57.9 °F73 %29.93 in10.0 miCalmScattered Clouds
7:35 PM65.3 °F59.4 °F81 %29.94 in10.0 miCalmScattered Clouds
7:55 PM64.4 °F59.9 °F85 %29.94 in10.0 miNNE (20°)3.5 mphMostly Cloudy
8:15 PM64.8 °F60.4 °F86 %29.94 in10.0 miCalmMostly Cloudy
8:35 PM64.2 °F60.3 °F87 %29.94 in10.0 miNNW (330°)3.5 mphMostly Cloudy
8:55 PM65.3 °F60.1 °F83 %29.96 in10.0 miNW (320°)3.5 mphMostly Cloudy
9:15 PM64.8 °F60.4 °F86 %29.97 in10.0 miNNW (330°)3.5 mphOvercast
9:35 PM65.1 °F60.6 °F85 %29.97 in10.0 miCalmOvercast
9:55 PM65.3 °F61.0 °F86 %29.96 in10.0 miNNW (340°)3.5 mphOvercast
10:15 PM65.1 °F61.3 °F88 %29.96 in10.0 miNE (40°)5.8 mphMostly Cloudy
10:35 PM64.9 °F61.0 °F87 %29.97 in10.0 miNNE (20°)6.9 mphMostly Cloudy
10:55 PM64.6 °F61.5 °F90 %29.97 in10.0 miNNW (330°)5.8 mphLight Drizzle
11:15 PM63.9 °F61.2 °F91 %29.98 in10.0 miNNW (340°)6.9 mphRainLight Rain
11:35 PM63.7 °F61.0 °F91 %29.97 in10.0 miNorth (350°)4.6 mphOvercast
11:55 PM63.5 °F61.0 °F91 %29.98 in10.0 miNNW (330°)10.4 mphThunderstormOvercast
Hourly data recorded from KORG, located miles away from Mauriceville, Texas







STORIES FROM OUR PARTNERS